Change the Weather History Date:

Saturday, December 15, 2012

  Actual Average (KLAF) Record (KLAF)
Temperature  
Mean Temperature 46 °F 30 °F  
Max Temperature 53 °F 37 °F 65 °F (1971)
Min Temperature 40 °F 23 °F -2 °F (2010)
Degree Days  
Heating Degree Days 18 35  
Month to date heating degree days 485  
Since 1 July heating degree days 1586  
Cooling Degree Days 0 0  
Month to date cooling degree days 0  
Year to date cooling degree days 983  
Moisture  
Dew Point 43 °F    
Average Humidity 85    
Maximum Humidity 94    
Minimum Humidity 66    
Precipitation  
Precipitation 0.25 in 0.08 in 1.77 in (1987)
Month to date precipitation 1.32  
Year to date precipitation 35.39  
Sea Level Pressure  
Sea Level Pressure 29.77 in    
Wind  
Wind Speed 12 mph (SSE)    
Max Wind Speed 24 mph    
Max Gust Speed 32 mph    
Visibility 9 miles    
Events Rain    
T = Trace of Precipitation, MM = Missing Value Source: NWS Daily Summary

Daily Weather History Graph

Daily Weather History Graph

Search for Another Location

Airport or City:

Trip Planner

Search our weather history database for the weather conditions in past years. The results will help you decide how hot, cold, wet, or windy it might be!

Date:

Astronomy

Dec. 15, 2012 Rise Set
Actual Time 7:06 AM CST 4:25 PM CST
Civil Twilight 6:35 AM CST 4:56 PM CST
Nautical Twilight 6:01 AM CST 5:30 PM CST
Astronomical Twilight 5:28 AM CST 6:03 PM CST
Moon 8:58 AM CST (12/15) 7:29 PM CST (12/15)
Length of Visible Light 10h 20m
Length of Day
9h 19m
Waxing Crescent, 8% of the Moon is Illuminated
Dec 15
Waxing Crescent
Dec 19
First Quarter
Dec 28
Full
Jan 4
Last Quarter
Jan 11
New

Hourly Weather History & Observations

Time (CST) Temp. Windchill Dew Point Humidity Pressure Visibility Wind Dir Wind Speed Gust Speed Precip Events Conditions
12:15 AM 41.7 °F 37.3 °F 32.0 °F 68% 30.03 in 10.0 mi SE 6.9 mph - N/A   Clear
12:35 AM 40.6 °F 35.4 °F 32.0 °F 71% 30.03 in 10.0 mi SE 8.1 mph - N/A   Clear
12:55 AM 40.6 °F 34.8 °F 32.0 °F 71% 30.02 in 10.0 mi SE 9.2 mph - N/A   Clear
1:15 AM 40.5 °F 34.6 °F 32.0 °F 72% 30.02 in 10.0 mi SE 9.2 mph - N/A   Clear
1:35 AM 40.3 °F 34.9 °F 32.0 °F 72% 30.00 in 10.0 mi SE 8.1 mph - N/A   Clear
1:55 AM 41.4 °F 36.2 °F 32.0 °F 69% 29.99 in 10.0 mi SE 8.1 mph - N/A   Scattered Clouds
2:15 AM 41.2 °F 35.5 °F 32.0 °F 70% 29.98 in 10.0 mi SE 9.2 mph - N/A   Mostly Cloudy
2:35 AM 41.2 °F 36.0 °F 32.0 °F 70% 29.98 in 10.0 mi SE 8.1 mph - N/A   Mostly Cloudy
2:55 AM 41.9 °F 38.2 °F 32.0 °F 68% 29.98 in 10.0 mi SE 5.8 mph - N/A   Overcast
3:15 AM 42.8 °F 38.0 °F 32.0 °F 66% 29.97 in 10.0 mi SE 8.1 mph - N/A   Mostly Cloudy
3:35 AM 42.6 °F 37.8 °F 32.0 °F 66% 29.97 in 10.0 mi ESE 8.1 mph - N/A   Scattered Clouds
3:55 AM 42.3 °F 37.9 °F 32.0 °F 67% 29.98 in 10.0 mi SE 6.9 mph - N/A   Scattered Clouds
4:15 AM 42.8 °F 37.5 °F 32.0 °F 66% 29.98 in 10.0 mi SE 9.2 mph - N/A   Scattered Clouds
4:35 AM 43.0 °F 37.7 °F 32.4 °F 66% 29.96 in 10.0 mi SE 9.2 mph - N/A   Mostly Cloudy
4:55 AM 43.3 °F 37.7 °F 32.9 °F 67% 29.97 in 10.0 mi SE 10.4 mph - N/A   Mostly Cloudy
5:15 AM 42.4 °F 35.7 °F 34.7 °F 74% 29.95 in 10.0 mi SE 12.7 mph - N/A Rain Light Rain
5:35 AM 42.3 °F 36.3 °F 36.5 °F 80% 29.91 in 10.0 mi ESE 10.4 mph - 0.01 in Rain Light Rain
5:55 AM 42.4 °F 36.1 °F 37.4 °F 82% 29.90 in 10.0 mi SE 11.5 mph - 0.01 in   Scattered Clouds
6:15 AM 41.0 °F 34.7 °F 37.4 °F 87% 29.90 in 10.0 mi SE 10.4 mph - N/A   Mostly Cloudy
6:35 AM 41.9 °F 36.3 °F 37.6 °F 85% 29.91 in 10.0 mi SE 9.2 mph - N/A   Overcast
6:55 AM 42.4 °F 36.5 °F 38.3 °F 85% 29.92 in 10.0 mi SSE 10.4 mph - N/A   Overcast
7:15 AM 43.0 °F 36.4 °F 38.3 °F 84% 29.91 in 10.0 mi SSE 12.7 mph - 0.01 in Rain Rain
7:35 AM 43.0 °F 36.8 °F 38.5 °F 84% 29.90 in 10.0 mi SE 11.5 mph - 0.03 in Rain Rain
7:55 AM 42.8 °F 36.2 °F 39.2 °F 87% 29.88 in 7.0 mi SE 12.7 mph - 0.10 in Rain Rain
8:15 AM 42.8 °F 34.3 °F 40.1 °F 90% 29.81 in 5.0 mi ESE 19.6 mph 25.3 mph 0.05 in Rain Light Rain
8:35 AM 43.2 °F 34.0 °F 40.3 °F 90% 29.75 in 7.0 mi SE 23.0 mph 29.9 mph 0.06 in Rain Light Rain
8:55 AM 44.1 °F 37.4 °F 41.0 °F 89% 29.82 in 7.0 mi SSE 13.8 mph 20.7 mph 0.06 in   Mostly Cloudy
9:15 AM 45.0 °F 37.4 °F 41.9 °F 89% 29.82 in 7.0 mi South 18.4 mph 21.9 mph N/A   Overcast
9:35 AM 45.0 °F 38.5 °F 42.6 °F 91% 29.81 in 3.0 mi SSE 13.8 mph - 0.03 in Rain Heavy Rain
9:55 AM 45.3 °F 37.8 °F 43.7 °F 94% 29.80 in 3.0 mi SSE 18.4 mph 21.9 mph 0.07 in Rain Light Rain
10:15 AM 46.2 °F 39.3 °F 44.1 °F 92% 29.78 in 7.0 mi SSE 17.3 mph 27.6 mph N/A   Light Drizzle
10:35 AM 46.6 °F - 43.7 °F 90% 29.76 in 7.0 mi SSE 17.3 mph 24.2 mph N/A Rain Light Rain
10:55 AM 46.9 °F - 43.9 °F 89% 29.75 in 4.0 mi SSE 20.7 mph 32.2 mph 0.01 in Rain Light Rain
11:15 AM 46.6 °F - 43.9 °F 90% 29.74 in 5.0 mi SSE 20.7 mph 26.5 mph N/A   Overcast
11:35 AM 47.3 °F - 43.3 °F 86% 29.72 in 10.0 mi SSE 19.6 mph 29.9 mph N/A   Overcast
11:55 AM 47.7 °F - 43.3 °F 85% 29.70 in 10.0 mi SSE 23.0 mph 31.1 mph N/A   Overcast
12:15 PM 47.8 °F - 43.9 °F 86% 29.69 in 10.0 mi South 24.2 mph 27.6 mph N/A   Overcast
12:35 PM 48.2 °F - 44.2 °F 86% 29.69 in 10.0 mi South 17.3 mph 26.5 mph N/A   Overcast
12:55 PM 48.2 °F - 44.6 °F 87% 29.68 in 7.0 mi South 19.6 mph 26.5 mph N/A   Overcast
1:15 PM 48.0 °F - 45.5 °F 91% 29.68 in 4.0 mi South 17.3 mph 26.5 mph N/A Rain Rain
1:35 PM 48.0 °F - 45.7 °F 92% 29.66 in 5.0 mi South 15.0 mph 20.7 mph N/A   Drizzle
1:55 PM 48.2 °F - 46.4 °F 93% 29.65 in 5.0 mi South 13.8 mph 19.6 mph N/A Rain Light Rain
2:15 PM 49.1 °F - 46.8 °F 92% 29.65 in 7.0 mi South 15.0 mph 20.7 mph N/A   Overcast
2:35 PM 49.3 °F - 46.9 °F 92% 29.64 in 10.0 mi South 17.3 mph - N/A   Overcast
2:55 PM 50.0 °F - 48.2 °F 94% 29.63 in 10.0 mi South 20.7 mph 24.2 mph N/A   Overcast
3:15 PM 50.0 °F - 47.3 °F 90% 29.63 in 10.0 mi South 16.1 mph 23.0 mph N/A   Overcast
3:35 PM 50.0 °F - 47.3 °F 90% 29.63 in 7.0 mi South 17.3 mph 24.2 mph N/A   Overcast
3:55 PM 50.0 °F - 47.3 °F 90% 29.62 in 10.0 mi South 17.3 mph - N/A   Overcast
4:15 PM 50.4 °F - 47.3 °F 89% 29.63 in 10.0 mi South 13.8 mph 21.9 mph N/A   Overcast
4:35 PM 50.5 °F - 47.5 °F 89% 29.62 in 10.0 mi South 16.1 mph 20.7 mph N/A   Overcast
4:55 PM 50.9 °F - 47.7 °F 89% 29.63 in 10.0 mi South 15.0 mph - N/A   Overcast
5:15 PM 51.3 °F - 48.2 °F 89% 29.64 in 10.0 mi South 15.0 mph - N/A   Overcast
5:35 PM 51.6 °F - 48.6 °F 89% 29.63 in 10.0 mi South 12.7 mph 20.7 mph N/A   Overcast
5:55 PM 52.0 °F - 49.1 °F 90% 29.64 in 10.0 mi South 16.1 mph 24.2 mph N/A   Overcast
6:15 PM 52.7 °F - 49.5 °F 89% 29.64 in 10.0 mi SSW 19.6 mph 24.2 mph N/A   Overcast
6:35 PM 53.1 °F - 50.0 °F 89% 29.63 in 10.0 mi South 18.4 mph 21.9 mph N/A   Overcast
6:55 PM 53.2 °F - 50.0 °F 89% 29.64 in 10.0 mi SSW 18.4 mph 23.0 mph N/A   Overcast
7:15 PM 53.6 °F - 50.2 °F 88% 29.64 in 10.0 mi SSW 18.4 mph 26.5 mph N/A   Overcast
7:35 PM 53.4 °F - 50.2 °F 89% 29.64 in 10.0 mi SSW 19.6 mph 23.0 mph N/A   Overcast
7:55 PM 53.4 °F - 50.2 °F 89% 29.64 in 10.0 mi SSW 18.4 mph 24.2 mph N/A   Overcast
8:15 PM 53.4 °F - 50.4 °F 89% 29.64 in 10.0 mi SSW 15.0 mph 21.9 mph N/A   Overcast
8:35 PM 53.6 °F - 50.4 °F 89% 29.65 in 10.0 mi SSW 15.0 mph 20.7 mph N/A   Overcast
8:55 PM 53.6 °F - 50.4 °F 89% 29.65 in 10.0 mi SSW 16.1 mph - N/A   Overcast
9:15 PM 53.6 °F - 50.7 °F 90% 29.65 in 10.0 mi SSW 18.4 mph 26.5 mph N/A   Mostly Cloudy
9:35 PM 53.8 °F - 50.9 °F 90% 29.64 in 10.0 mi SSW 17.3 mph 24.2 mph N/A   Overcast
9:55 PM 53.8 °F - 50.9 °F 90% 29.64 in 10.0 mi SSW 17.3 mph 23.0 mph N/A   Unknown
10:15 PM 53.8 °F - 50.9 °F 90% 29.65 in 10.0 mi SSW 16.1 mph 20.7 mph N/A   Unknown
10:35 PM 53.6 °F - 50.9 °F 91% 29.65 in 10.0 mi SSW 16.1 mph 21.9 mph N/A   Unknown
10:55 PM 53.6 °F - 50.9 °F 91% 29.65 in 10.0 mi SSW 16.1 mph - N/A   Overcast
11:15 PM 53.6 °F - 50.9 °F 91% 29.65 in 10.0 mi SSW 13.8 mph 23.0 mph N/A   Unknown
11:35 PM 53.4 °F - 50.9 °F 91% 29.65 in 10.0 mi SW 13.8 mph 19.6 mph N/A   Unknown
11:55 PM 53.4 °F - 50.9 °F 91% 29.64 in 7.0 mi SSW 11.5 mph - N/A   Unknown